Time,TemperatureF,DewpointF,PressureIn,WindDirection,WindDirectionDegrees,WindSpeedMPH,WindSpeedGustMPH,Humidity,HourlyPrecipIn,Conditions,Clouds,dailyrainin,SolarRadiationWatts/m^2,SoftwareType,DateUTC
2013-05-20 00:01:00,46.0,25.0,-100.00,NNW,329,1.0,10.0,44,0.00,,,0.00,0.000000,,2013-05-20 07:01:00,
2013-05-20 00:11:00,46.0,25.0,-100.00,NNW,329,1.0,10.0,44,0.00,,,0.00,0.000000,,2013-05-20 07:11:00,
2013-05-20 00:42:00,35.0,21.0,-100.00,NW,318,4.0,6.0,56,0.00,,,0.00,0.000000,,2013-05-20 07:42:00,
2013-05-20 00:52:00,35.0,21.0,-100.00,NW,318,4.0,6.0,56,0.00,,,0.00,0.000000,,2013-05-20 07:52:00,
2013-05-20 01:01:00,35.0,21.0,-100.00,NW,318,4.0,6.0,56,0.00,,,0.00,0.000000,,2013-05-20 08:01:00,
2013-05-20 01:42:00,31.0,19.0,-100.00,WNW,292,2.0,4.0,61,-99.99,,,0.00,0.000000,,2013-05-20 08:42:00,
2013-05-20 01:52:00,31.0,19.0,-100.00,WNW,292,2.0,4.0,61,-99.99,,,0.00,0.000000,,2013-05-20 08:52:00,
2013-05-20 02:01:00,31.0,19.0,-100.00,WNW,292,2.0,4.0,61,-99.99,,,0.00,0.000000,,2013-05-20 09:01:00,
2013-05-20 02:43:00,28.0,19.0,-100.00,ESE,102,0.0,3.0,68,-99.99,,,0.00,0.000000,,2013-05-20 09:43:00,
2013-05-20 02:52:00,28.0,19.0,-100.00,ESE,102,0.0,3.0,68,-99.99,,,0.00,0.000000,,2013-05-20 09:52:00,
2013-05-20 03:03:00,28.0,19.0,-100.00,ESE,102,0.0,3.0,68,-99.99,,,0.00,0.000000,,2013-05-20 10:03:00,
2013-05-20 03:33:00,25.0,17.0,-100.00,SW,221,0.0,2.0,72,-99.99,,,0.00,0.000000,,2013-05-20 10:33:00,
2013-05-20 03:42:00,25.0,17.0,-100.00,SW,221,0.0,2.0,72,-99.99,,,0.00,0.000000,,2013-05-20 10:42:00,
2013-05-20 03:52:00,25.0,17.0,-100.00,SW,221,0.0,2.0,72,-99.99,,,0.00,0.000000,,2013-05-20 10:52:00,
2013-05-20 04:02:00,25.0,17.0,-100.00,SW,221,0.0,2.0,72,-99.99,,,0.00,0.000000,,2013-05-20 11:02:00,
2013-05-20 04:42:00,23.0,16.0,-100.00,NNW,345,0.0,2.0,73,-99.99,,,0.00,0.000000,,2013-05-20 11:42:00,
2013-05-20 04:52:00,23.0,16.0,-100.00,NNW,345,0.0,2.0,73,-99.99,,,0.00,0.000000,,2013-05-20 11:52:00,
2013-05-20 05:01:00,23.0,16.0,-100.00,NNW,345,0.0,2.0,73,-99.99,,,0.00,0.000000,,2013-05-20 12:01:00,
2013-05-20 05:42:00,20.0,14.0,-100.00,NE,34,0.0,2.0,77,-99.99,,,0.00,0.000000,,2013-05-20 12:42:00,
2013-05-20 05:52:00,20.0,14.0,-100.00,NE,34,0.0,2.0,77,-99.99,,,0.00,0.000000,,2013-05-20 12:52:00,
2013-05-20 06:42:00,30.0,20.0,-100.00,South,181,1.0,3.0,66,-99.99,,,0.00,65.000000,,2013-05-20 13:42:00,
2013-05-20 06:52:00,30.0,20.0,-100.00,South,181,1.0,3.0,66,-99.99,,,0.00,65.000000,,2013-05-20 13:52:00,
2013-05-20 07:01:00,30.0,20.0,-100.00,South,181,1.0,3.0,66,-99.99,,,0.00,65.000000,,2013-05-20 14:01:00,
2013-05-20 07:11:00,30.0,20.0,-100.00,South,181,1.0,3.0,66,-99.99,,,0.00,65.000000,,2013-05-20 14:11:00,
2013-05-20 07:32:00,45.0,25.0,-100.00,ENE,59,4.0,7.0,46,-99.99,,,0.00,268.000000,,2013-05-20 14:32:00,
2013-05-20 07:42:00,45.0,25.0,-100.00,ENE,59,4.0,7.0,46,-99.99,,,0.00,268.000000,,2013-05-20 14:42:00,
2013-05-20 07:52:00,45.0,25.0,-100.00,ENE,59,4.0,7.0,46,-99.99,,,0.00,268.000000,,2013-05-20 14:52:00,
2013-05-20 08:01:00,45.0,25.0,-100.00,ENE,59,4.0,7.0,46,-99.99,,,0.00,268.000000,,2013-05-20 15:01:00,
2013-05-20 08:11:00,45.0,25.0,-100.00,ENE,59,4.0,7.0,46,-99.99,,,0.00,268.000000,,2013-05-20 15:11:00,
2013-05-20 08:42:00,50.0,25.0,-100.00,NW,310,10.0,15.0,37,0.00,,,0.00,486.000000,,2013-05-20 15:42:00,
2013-05-20 08:53:00,50.0,25.0,-100.00,NW,310,10.0,15.0,37,0.00,,,0.00,486.000000,,2013-05-20 15:53:00,
2013-05-20 09:02:00,50.0,25.0,-100.00,NW,310,10.0,15.0,37,0.00,,,0.00,486.000000,,2013-05-20 16:02:00,
2013-05-20 09:12:00,50.0,25.0,-100.00,NW,310,10.0,15.0,37,0.00,,,0.00,486.000000,,2013-05-20 16:12:00,
2013-05-20 09:33:00,53.0,25.0,-100.00,North,349,11.0,21.0,34,0.00,,,0.00,685.000000,,2013-05-20 16:33:00,
2013-05-20 09:42:00,53.0,25.0,-100.00,North,349,11.0,21.0,34,0.00,,,0.00,685.000000,,2013-05-20 16:42:00,
2013-05-20 09:53:00,53.0,25.0,-100.00,North,349,11.0,21.0,34,0.00,,,0.00,685.000000,,2013-05-20 16:53:00,
2013-05-20 10:02:00,53.0,25.0,-100.00,North,349,11.0,21.0,34,0.00,,,0.00,685.000000,,2013-05-20 17:02:00,
2013-05-20 10:11:00,53.0,25.0,-100.00,North,349,11.0,21.0,34,0.00,,,0.00,685.000000,,2013-05-20 17:11:00,
2013-05-20 10:45:00,56.0,26.0,-100.00,NW,318,11.0,20.0,31,0.00,,,0.00,853.000000,,2013-05-20 17:45:00,
2013-05-20 10:53:00,56.0,26.0,-100.00,NW,318,11.0,20.0,31,0.00,,,0.00,853.000000,,2013-05-20 17:53:00,
2013-05-20 11:02:00,56.0,26.0,-100.00,NW,318,11.0,20.0,31,0.00,,,0.00,853.000000,,2013-05-20 18:02:00,
2013-05-20 11:12:00,56.0,26.0,-100.00,NW,318,11.0,20.0,31,0.00,,,0.00,853.000000,,2013-05-20 18:12:00,
2013-05-20 11:42:00,58.0,21.0,-100.00,North,349,13.0,27.0,24,0.00,,,0.00,978.000000,,2013-05-20 18:42:00,
2013-05-20 11:55:00,58.0,21.0,-100.00,North,349,13.0,27.0,24,0.00,,,0.00,978.000000,,2013-05-20 18:55:00,
2013-05-20 12:04:00,58.0,21.0,-100.00,North,349,13.0,27.0,24,0.00,,,0.00,978.000000,,2013-05-20 19:04:00,
2013-05-20 12:11:00,58.0,21.0,-100.00,North,349,13.0,27.0,24,0.00,,,0.00,978.000000,,2013-05-20 19:11:00,
2013-05-20 12:42:00,60.0,21.0,-100.00,North,7,14.0,23.0,22,0.00,,,0.00,1028.000000,,2013-05-20 19:42:00,
2013-05-20 12:52:00,60.0,21.0,-100.00,North,7,14.0,23.0,22,0.00,,,0.00,1028.000000,,2013-05-20 19:52:00,
2013-05-20 13:01:00,60.0,21.0,-100.00,North,7,14.0,23.0,22,0.00,,,0.00,1028.000000,,2013-05-20 20:01:00,
2013-05-20 13:11:00,60.0,21.0,-100.00,North,7,14.0,23.0,22,0.00,,,0.00,1028.000000,,2013-05-20 20:11:00,
2013-05-20 13:42:00,61.0,24.0,-100.00,NNW,338,8.0,24.0,24,0.00,,,0.00,1000.000000,,2013-05-20 20:42:00,
2013-05-20 13:52:00,61.0,24.0,-100.00,NNW,338,8.0,24.0,24,0.00,,,0.00,1000.000000,,2013-05-20 20:52:00,
2013-05-20 14:01:00,61.0,24.0,-100.00,NNW,338,8.0,24.0,24,0.00,,,0.00,1000.000000,,2013-05-20 21:01:00,
2013-05-20 14:11:00,61.0,24.0,-100.00,NNW,338,8.0,24.0,24,0.00,,,0.00,1000.000000,,2013-05-20 21:11:00,
2013-05-20 14:43:00,61.0,23.0,-100.00,NNW,329,10.0,23.0,23,0.00,,,0.00,894.000000,,2013-05-20 21:43:00,
2013-05-20 14:53:00,61.0,23.0,-100.00,NNW,329,10.0,23.0,23,0.00,,,0.00,894.000000,,2013-05-20 21:53:00,
2013-05-20 15:02:00,61.0,23.0,-100.00,NNW,329,10.0,23.0,23,0.00,,,0.00,894.000000,,2013-05-20 22:02:00,
2013-05-20 15:12:00,61.0,23.0,-100.00,NNW,329,10.0,23.0,23,0.00,,,0.00,894.000000,,2013-05-20 22:12:00,
2013-05-20 15:42:00,64.0,24.0,-100.00,North,360,13.0,23.0,22,0.00,,,0.00,861.000000,,2013-05-20 22:42:00,
2013-05-20 15:52:00,64.0,24.0,-100.00,North,360,13.0,23.0,22,0.00,,,0.00,861.000000,,2013-05-20 22:52:00,
2013-05-20 16:02:00,64.0,24.0,-100.00,North,360,13.0,23.0,22,0.00,,,0.00,861.000000,,2013-05-20 23:02:00,
2013-05-20 16:12:00,64.0,24.0,-100.00,North,360,13.0,23.0,22,0.00,,,0.00,861.000000,,2013-05-20 23:12:00,
2013-05-20 16:42:00,64.0,21.0,-100.00,North,8,12.0,27.0,19,0.00,,,0.00,743.000000,,2013-05-20 23:42:00,
2013-05-20 16:53:00,64.0,21.0,-100.00,North,8,12.0,27.0,19,0.00,,,0.00,743.000000,,2013-05-20 23:53:00,
2013-05-20 17:01:00,64.0,21.0,-100.00,North,8,12.0,27.0,19,0.00,,,0.00,743.000000,,2013-05-21 00:01:00,
2013-05-20 17:11:00,64.0,21.0,-100.00,North,8,12.0,27.0,19,0.00,,,0.00,743.000000,,2013-05-21 00:11:00,
2013-05-20 17:42:00,64.0,22.0,-100.00,North,4,13.0,23.0,20,0.00,,,0.00,526.000000,,2013-05-21 00:42:00,
2013-05-20 17:52:00,64.0,22.0,-100.00,North,4,13.0,23.0,20,0.00,,,0.00,526.000000,,2013-05-21 00:52:00,
2013-05-20 18:01:00,64.0,22.0,-100.00,North,4,13.0,23.0,20,0.00,,,0.00,526.000000,,2013-05-21 01:01:00,
2013-05-20 18:11:00,64.0,22.0,-100.00,North,4,13.0,23.0,20,0.00,,,0.00,526.000000,,2013-05-21 01:11:00,
2013-05-20 18:42:00,63.0,21.0,-100.00,NW,312,10.0,23.0,20,0.00,,,0.00,308.000000,,2013-05-21 01:42:00,
2013-05-20 18:53:00,63.0,21.0,-100.00,NW,312,10.0,23.0,20,0.00,,,0.00,308.000000,,2013-05-21 01:53:00,
2013-05-20 19:01:00,63.0,21.0,-100.00,NW,312,10.0,23.0,20,0.00,,,0.00,308.000000,,2013-05-21 02:01:00,
2013-05-20 19:11:00,63.0,21.0,-100.00,NW,312,10.0,23.0,20,0.00,,,0.00,308.000000,,2013-05-21 02:11:00,
2013-05-20 19:32:00,58.0,21.0,-100.00,NNW,327,6.0,19.0,24,0.00,,,0.00,103.000000,,2013-05-21 02:32:00,
2013-05-20 19:42:00,58.0,21.0,-100.00,NNW,327,6.0,19.0,24,0.00,,,0.00,103.000000,,2013-05-21 02:42:00,
2013-05-20 19:52:00,58.0,21.0,-100.00,NNW,327,6.0,19.0,24,0.00,,,0.00,103.000000,,2013-05-21 02:52:00,
2013-05-20 20:02:00,58.0,21.0,-100.00,NNW,327,6.0,19.0,24,0.00,,,0.00,103.000000,,2013-05-21 03:02:00,
2013-05-20 20:11:00,58.0,21.0,-100.00,NNW,327,6.0,19.0,24,0.00,,,0.00,103.000000,,2013-05-21 03:11:00,
2013-05-20 20:33:00,54.0,21.0,-100.00,WNW,302,4.0,11.0,27,0.00,,,0.00,3.000000,,2013-05-21 03:33:00,
2013-05-20 20:43:00,54.0,21.0,-100.00,WNW,302,4.0,11.0,27,0.00,,,0.00,3.000000,,2013-05-21 03:43:00,
2013-05-20 20:53:00,54.0,21.0,-100.00,WNW,302,4.0,11.0,27,0.00,,,0.00,3.000000,,2013-05-21 03:53:00,
2013-05-20 21:03:00,54.0,21.0,-100.00,WNW,302,4.0,11.0,27,0.00,,,0.00,3.000000,,2013-05-21 04:03:00,
2013-05-20 21:12:00,54.0,21.0,-100.00,WNW,302,4.0,11.0,27,0.00,,,0.00,3.000000,,2013-05-21 04:12:00,
2013-05-20 21:42:00,41.0,20.0,-100.00,SE,133,0.0,5.0,42,0.00,,,0.00,0.000000,,2013-05-21 04:42:00,
2013-05-20 21:53:00,41.0,20.0,-100.00,SE,133,0.0,5.0,42,0.00,,,0.00,0.000000,,2013-05-21 04:53:00,
2013-05-20 22:11:00,41.0,20.0,-100.00,SE,133,0.0,5.0,42,0.00,,,0.00,0.000000,,2013-05-21 05:11:00,
2013-05-20 22:32:00,35.0,18.0,-100.00,SSW,194,0.0,2.0,49,0.00,,,0.00,0.000000,,2013-05-21 05:32:00,
2013-05-20 23:32:00,32.0,17.0,-100.00,SW,223,1.0,3.0,53,-99.99,,,0.00,0.000000,,2013-05-21 06:32:00,